Current weather by "City, St" or "zip code"  
 
Advertise Here

Current Conditions: Hanchey AHP / Ozark, AL

Overcast


58.0 F

Last Updated on Mar 5 2021, 11:58 pm CST
Humidity: 44%
Wind Speed: N 10.4 mph
Barometer 30.02 in
Dewpoint: 35.6 F
Visibility: 10.00 mi
Precip: --
Heat Index: NA
Wind Chill: 56 F
Current conditions at:

Hanchey AHP / Ozark, AL (KHEY)

Lat: 31.35 Lon: 85.66667

Local Radar Image active severe weather and emergency alerts image image weather storm and storm spotter reports image weather observation monitoring service image
Local
Radar
Active
Alerts
Storm Reports Obs
Monitoring

Sign-up For Email & Text Message Weather Alert Notification Services


Advertise Here

Observation History for Hanchey AHP / Ozark, AL


Time Wind
(mph)
Vis
(mi)
Weather Precip (in) Temperature (F) Relative
Humidity
Wind
Chill
(F)
Heat
Index
(F)
Pressure
Air Dwpt altimeter
(in)
sea level
(mb)
Rmks
11:58 pm CST N 10.4 10.00 Overcast -- 58.0 35.6 44% 56 NA 30.02 1016.7
10:58 pm CST N 9.2 10.00 A Few Clouds -- 59.0 36.9 44% 57 NA 30.03 1017.0
9:58 pm CST N 6.9 10.00 A Few Clouds -- 58.0 39.4 49% 57 NA 30.03 1017.0
8:58 pm CST N 5.8 10.00 Overcast -- 58.0 39.0 49% 57 NA 29.99 1015.7
7:58 pm CST E 9.2 10.00 Mostly Cloudy -- 58.0 42.6 56% 56 NA 29.97 1015.1
6:58 pm CST N 0.0 10.00 A Few Clouds -- 59.0 41.9 53% NA NA 30.03 1017.2
5:58 pm CST N 3.5 10.00 Fair -- 61.0 40.6 47% NA NA 30.01 1016.4
4:58 pm CST NW 3.5 9.00 Fair -- 67.0 35.1 31% NA NA 30.00 1016.1
3:58 pm CST NW 3.5 10.00 Fair -- 70.0 34.2 27% NA NA 29.99 1015.8
2:58 pm CST N 0.0 10.00 Fair -- 69.0 31.8 26% NA NA 29.98 1015.4
1:58 pm CST E 5.8 10.00 Fair -- 68.0 34.0 28% NA NA 29.98 1015.4
12:58 pm CST S 3.5 10.00 Partly Cloudy -- 67.0 31.8 27% NA NA 30.01 1016.4
11:58 am CST E 6.9 10.00 Partly Cloudy -- 67.0 30.6 26% NA NA 30.04 1017.4
10:58 am CST E 10.4 G 17.3 10.00 A Few Clouds -- 67.0 31.6 27% NA NA 30.06 1018.1
9:58 am CST E 12.7 10.00 A Few Clouds -- 65.0 32.9 30% NA NA 30.07 1018.4
8:58 am CST NE 6.9 10.00 Fair -- 60.0 36.3 42% 59 NA 30.09 1019.1
7:58 am CST N 0.0 10.00 Fair -- 50.0 42.4 74% NA NA 30.08 1018.8
6:58 am CST N 0.0 10.00 Fair -- 42.0 40.3 94% NA NA 30.07 1018.5
5:58 am CST NE 6.9 10.00 Fair -- 48.0 36.0 64% 45 NA 30.05 1017.8
4:58 am CST N 0.0 10.00 Fair -- 41.0 39.6 94% NA NA 30.03 1017.1
3:58 am CST N 0.0 10.00 Fair -- 42.0 39.0 90% NA NA 30.02 1016.8
2:58 am CST N 0.0 10.00 Fair -- 43.0 39.0 86% NA NA 30.01 1016.4
1:58 am CST N 0.0 10.00 Fair -- 44.0 40.1 87% NA NA 30.01 1016.4
12:58 am CST N 0.0 10.00 Fair -- 45.0 41.2 86% NA NA 30.02 1016.8

Regional Weather Observation


Enterprise Municipal Airport, AL (KEDN)

Partly Cloudy
57.0 F

Fort Rucker, Lowe Army Heliport, AL (KLOR)

Overcast
56.0 F

Cairns Army Air Field / Ozark, AL (KOZR)

Mostly Cloudy
58.0 F

Hanchey AHP / Ozark, AL (KHEY)

Overcast
58.0 F

Troy, Troy Municipal Airport, AL (KTOI)

Mostly Cloudy
57.0 F

Dothan, Dothan Regional Airport, AL (KDHN)

Fair
56.0 F
Advertise Here

Advertise Here